Weather Roundup
Issued by NWS Springfield, MO

Home | Current Version | Previous Version | Text Only | Print | Product List | Glossary On
Versions: 1 2 3 4 5 6 7 8 9 10 11 12 13 14 15 16 17 18 19 20 21 22 23 24 25 26 27 28 29 30 31 32 33 34 35 36 37 38 39 40 41 42 43 44 45 46 47 48 49 50
000
NZUS99 KSGF 080259
HRRSGF

HOURLY WEATHER
NATIONAL WEATHER SERVICE SPRINGFIELD MO
1000 PM CDT TUE JUL 07 2015

......SGF CWA......

CITY           SKY/WX    TMP DP  RH WIND       PRES   REMARKS
SPRINGFIELD    CLOUDY    67  66  97 NE7       30.03R FOG
JOPLIN         LGT RAIN  65  64  97 NE6       30.04R FOG
WEST PLAINS    CLOUDY    72  70  93 CALM      30.06R
ROLLA          CLOUDY    64  63  96 NE8       30.05R FOG
OSAGE BEACH    CLOUDY    64  63  94 E6        30.06R

......SURROUNDING SGF CWA......

CITY           SKY/WX    TMP DP  RH WIND       PRES   REMARKS
CHANUTE        LGT RAIN  64  61  90 NE7       30.04R FOG
PARSONS        LGT RAIN  65  64  97 CALM      30.04R FOG
COFFEYVILLE    LGT RAIN  65  63  93 NE9       30.02R FOG
EMPORIA        LGT RAIN  63  61  93 NE6       30.06R
SILOAM SPRINGS CLOUDY    72  66  83 N3        30.02R
HARRISON AR    CLOUDY    72  71  97 SE3       30.05R
NEAR YELLVILLE CLOUDY    73  70  88 CALM      30.01R

......KANSAS AND MISSOURI......

CITY           SKY/WX    TMP DP  RH WIND       PRES   REMARKS
KANSAS CTY INT CLOUDY    67  61  81 N7        30.06R
DOWNTOWN KC    CLOUDY    70  60  70 NE7       30.05R
COLUMBIA       LGT RAIN  66  64  93 E5        30.07R FOG
SEDALIA        LGT RAIN  67  65  93 E5        30.07R FOG
ST JOSEPH      CLOUDY    66  60  81 NE5       30.07R
ST LOUIS       CLOUDY    69  62  78 CALM      30.07R
SPIRIT OF STL  LGT RAIN  65  65 100 SE3       30.06R FOG
KIRKSVILLE     CLOUDY    65  60  84 NE5       30.09R
WICHITA        LGT RAIN  64  59  83 NE8       30.06R
TOPEKA         CLOUDY    67  61  81 N5        30.06R
OLATHE         LGT RAIN  65  62  90 CALM      30.06R FOG

......TENNESSEE......

CITY           SKY/WX    TMP DP  RH WIND       PRES   REMARKS
MEMPHIS        CLOUDY    82  74  76 S7        30.05R
NASHVILLE      CLOUDY    73  73 100 S3        30.09R

......ARKANSAS.......

CITY           SKY/WX    TMP DP  RH WIND       PRES   REMARKS
FAYETTEVILLE   CLOUDY    70  70 100 CALM      30.02R
FT SMITH       CLOUDY    75  71  87 E5        29.99R
LITTLE ROCK    CLOUDY    82  72  71 E5        30.01R

......OKLAHOMA.......

CITY           SKY/WX    TMP DP  RH WIND       PRES   REMARKS
TULSA          CLOUDY    67  65  93 NE6       29.98S
PONCA CITY     LGT RAIN  64  62  93 NE9       30.02R FOG
MCALESTER      CLOUDY    74  72  93 CALM      29.96S
OKLAHOMA CITY  RAIN      67  66  97 NE15      29.96F FOG

......IOWA............

CITY           SKY/WX    TMP DP  RH WIND       PRES   REMARKS
DES MOINES     MOCLDY    66  51  58 NE6       30.09R
QUAD CITIES    MOCLDY    64  56  75 CALM      30.08R

......ILLINOIS........

CITY           SKY/WX    TMP DP  RH WIND       PRES   REMARKS
QUINCY         CLOUDY    68  63  84 E3        30.06R HAZE
CHICAGO        MOCLDY    57  46  66 N7        30.10R



USA.gov is the U.S. government's official web portal to all federal, state and local government web resources and services.